Regional Weather Roundup
Issued by NWS San Diego, CA

Home | Current Version | Previous Version | Text Only | Print | Product List | Glossary On
Versions: 1 2 3 4 5 6 7 8 9 10 11 12 13 14 15 16 17 18 19 20 21 22 23 24 25 26 27 28 29 30 31 32 33 34 35 36 37 38 39 40 41 42 43 44 45 46 47 48 49 50
000
ASUS46 KSGX 262111
RWRSGX

SAN DIEGO HOURLY WEATHER ROUNDUP
NATIONAL WEATHER SERVICE SAN DIEGO CA
200 PM PDT THU APR 26 2018

NOTE: "FAIR" INDICATES FEW OR NO CLOUDS BELOW 12,000 FEET WITH NO
SIGNIFICANT WEATHER AND/OR OBSTRUCTIONS TO VISIBILITY.

CAZ042-043-060-061-PZZ750-775-262200-

GREATER SAN DIEGO AREA

CITY           SKY/WX    TMP DP  RH WIND       PRES   REMARKS
SAN DIEGO AP   FAIR      67  51  56 W13       30.05S
NATIONAL CITY    N/A     66  55  67 SW7       30.04F
CHULA VISTA      N/A     66  55  69 W3        29.95F
IMPERIAL BEACH FAIR      65  50  58 W14       30.04F
BROWN FIELD    FAIR      66  51  58 W9        30.02S
MIRAMAR MCAS   FAIR      70  51  51 W10       30.02S
MONTGOMERY FLD FAIR      68  50  52 W8        30.03R
GILLESPIE FLD  SUNNY     73  50  43 W10       30.01S

$$

NORTH SAN DIEGO COUNTY

CITY           SKY/WX    TMP DP  RH WIND       PRES   REMARKS
CAMP PENDLETON FAIR      66  52  60 SW8G16    30.02S
OCEANSIDE AP   FAIR      65  51  60 MISG      30.02F
OCEANSIDE HBR    N/A     61  54  77 CALM      30.05F
VISTA            N/A     66  55  67 SW5       30.00S
CARLSBAD       FAIR      63  51  65 W12       30.02F
DEL MAR          N/A     66  55  67 CALM      30.05S
LA JOLLA SCRIP   N/A     60  54  79 W7        30.04S
FALLBROOK        N/A     71  55  56 S1        30.02S
ESCONDIDO        N/A     73  54  52 W10       30.01S
SAN MARCOS       N/A     67  53  59 W6        30.05S
POWAY            N/A     73  55  51 SW2       30.00S

$$

EAST SAN DIEGO COUNTY

CITY           SKY/WX    TMP DP  RH WIND       PRES   REMARKS
RAMONA         FAIR      75  52  44 NW9       30.01S
SANTEE LAKES     N/A     74  55  51 SW3       29.99S
LA MESA          N/A     69  53  57 W7        29.96S
JAMUL            N/A     74  54  50 CALM      30.00S
CAMPO            N/A     76  28  17 SW18      29.98F

$$

ORANGE COUNTY AND THE LOS ANGELES BASIN

CITY           SKY/WX    TMP DP  RH WIND       PRES   REMARKS
JOHN WAYNE AP  FAIR      67  51  56 S13G20    30.03S
LAGUNA BEACH     N/A     65  55  69 CALM      29.99S
LAKE FOREST FR   N/A     75  50  41 W1        29.89F
HUNTINGTON BCH   N/A     66  56  70 SW7       30.04S
LOS ALAMITOS   SUNNY     67  51  56 S12       30.02F
FULLERTON      FAIR      70  51  51 SW8       30.01S
LONG BEACH     FAIR      66  51  58 S9        30.02F
L.A. AP        FAIR      64  51  62 W15       30.03S
L.A. DOWNTOWN  FAIR      69  52  54 VRB6      30.01S

$$

THE INLAND EMPIRE

CITY           SKY/WX    TMP DP  RH WIND       PRES   REMARKS
CORONA         FAIR      77  50  38 W10G21    29.99F
CHINO          FAIR      80  43  26 W14G20    30.00F
ONTARIO        FAIR      79  44  28 W13       29.99F
SAN BERNARDINO SUNNY     81  37  21 SW9       29.99S HAZE
RIVERSIDE AP   FAIR      78  45  30 W13G20    29.98F
MORENO VALLEY    N/A     82  44  26 NW3       28.10F
MARCH ARB      FAIR      77  42  28 NW9       29.99F
HORSETHIEF CYN   N/A     77  41  27 NE5       29.97F
PERRIS           N/A     78  47  34 NW7       29.92F
HEMET EAST       N/A     79  31  17 SW5       29.90S
FRENCH VALLEY  FAIR      75  46  35 SW9       30.00S
TEMECULA         N/A     77  53  42 SW8       30.04S

$$

SAN BERNARDINO AND RIVERSIDE COUNTY MOUNTAINS

CITY           SKY/WX    TMP DP  RH WIND       PRES   REMARKS
BIG BEAR AP    FAIR      68  19  15 NE12G20   30.16F
ANGELUS OAKS     N/A     67  37  32 W1        29.86S

$$

SOUTHERN DESERT INCLUDING THE COACHELLA VALLEY

CITY           SKY/WX    TMP DP  RH WIND       PRES   REMARKS
PALM SPRINGS   FAIR      98  28   8 NW15      29.82F
THOUSAND PALMS   N/A     96  31  10 W6        29.78F
PALM DESERT      N/A     99  40  13 CALM      31.03
THERMAL        FAIR     100  33   9 VRB7      29.77F
BLYTHE         FAIR      99  32   9 S15       29.79F
IMPERIAL AP    FAIR      97  31   9 VRB5      29.79F
EL CENTRO NAS  FAIR      96  34  11 E7        29.81F
YUMA AZ        PTSUNNY   93  42  17 W7        29.82F
MEXICALI       PTSUNNY   93  32  11 CALM      29.81F

$$

UPPER DESERT

CITY           SKY/WX    TMP DP  RH WIND       PRES   REMARKS
VICTORVILLE AP SUNNY     88  25  10 CALM      29.96F
HESPERIA         N/A     83  37  19 W8        29.88S
APPLE VALLEY     N/A     88  35  15 NW9       29.89F
PALMDALE       FAIR      85  33  15 SW20      29.96S
LANCASTER      FAIR      84  30  14 SW22      29.95S
EDWARDS AFB    SUNNY     87  19   8 NW3       29.91F
DAGGETT        FAIR      92  28  10 VRB6      29.88F
29 PALMS N     FAIR      93   8   4 E10       29.94F
NEEDLES        FAIR     103  17   4 SE9       29.80F HX  95

$$

REGIONAL REPORTS

CITY           SKY/WX    TMP DP  RH WIND       PRES   REMARKS
SANTA BARBARA  FAIR      60  51  72 SW6       30.04S
SANDBERG       FAIR      71  36  27 S17       30.09S
LAS VEGAS NV   FAIR      92  23   8 VRB5      29.89F
PHOENIX AZ     PTSUNNY   93  28  10 CALM      29.82F
TIJUANA        MOSUNNY   66  50  55 W6        30.04F
ENSENADA NW      N/A     62  32  31 CALM      29.96F

$$

OFFSHORE ISLANDS

CITY           SKY/WX    TMP DP  RH WIND       PRES   REMARKS
CATALINA ARPT  FAIR      59  29  31 SW12      30.04F
SAN CLEMENTE I PTSUNNY   62  50  64 W14       30.06F
SAN NICOLAS IS FAIR      62  47  57 W15       30.05S

$$

MARINE AND OFFSHORE BUOY REPORTS

STATION/POSITION SKY/WX   TEMP    WIND        PRES    VSBY  SWELL
                          AIR SEA DIR/SP/G                  HT/PER/DIR
                          (F)     (DEG/KT/KT) (MB)    (MI)  (FT/S/D)
TANNER BANKS               58 60              1018.0F
S CLEMENTE BASIN           58 63  280/ 12/ 14 1017.7F         5/260/15
SAN NICOLAS IS.               57                N/A           5/300/13
SO. S. ROSA ISLA           54 56  300/ 12/ 16 1017.7F         5/290/13
W. S. BARBARA CH              56  310/ 12/ 14 1017.4
M. S. BARBARA CH           54 57  240/  6/  8 1018.4
S. MONICA BASIN                   250/  6/  8 1017.3F         3/220/15
S PEDRO CHANNEL               61                N/A           3/160/15
CMP PENDLETON NS              62                N/A           2/200/15
OCEANSIDE OFFSHR              62                N/A           2/190/15
TORREY PINES OTR              62                N/A           3/190/15
SAN DIEGO BAY                 63              1016.7F
POINT LOMA SOUTH              61                N/A           5/180/15

$$




USA.gov is the U.S. government's official web portal to all federal, state and local government web resources and services.